Flag for U.S.A. Weather past 2 weeks in Oklahoma City, Oklahoma, U.S.A.

Now
29 °F

Light freezing rain. Ice fog.


Feels Like: 29 °F
Forecast: 25 / 35 °F
Wind: No wind

Location: Will Rogers World Airport

Current Time: Mar 1, 2015 at 5:57:01 AM

Latest Report: Mar 1, 2015 at 4:52 AM


Visibility: 4 mi

Pressure: 30.34 "Hg

Humidity: 85%

Dew point: 25 °F

Location of Oklahoma CityLocation

Historic Weather in Oklahoma City — Graph

°F

Oklahoma City temperature yesterday

Maximum temperature yesterday: 28 °F (at 10:52 PM)
Minimum temperature yesterday: 19 °F (at 12:52 AM)
Average temperature yesterday: 24 °F

Past Weeks' High & Low Weather Summary

 TemperatureHumidityPressure
High79 °F (Feb 14, 3:52 PM)93% (Feb 20, 10:52 PM)30.68 "Hg (Feb 20, 10:52 PM)
Low18 °F (Feb 27, 7:52 AM)19% (Feb 14, 3:52 PM)29.67 "Hg (Feb 20, 8:04 PM)
Average34 °F61%30.21 "Hg
* Reported Feb 14 4:52 AM — Mar 1 4:52 AM, Oklahoma City, Weather by CustomWeather, © 2015

Note: Actual official high and low records may vary slightly from our data, if they occured in-between our weather recording intervals... More about our weather records

Advertising

Oklahoma City weather history for previous 24 hours

 ConditionsComfort  
Time TempWeatherWind HumidityBarometerVisibility
4:52 AM
Sun, Mar 1
29 °FLight freezing rain. Ice fog.No wind85%30.34 "Hg4 mi
3:52 AM29 °FLight freezing rain. Ice fog.No wind85%30.34 "Hg3 mi
2:52 AM28 °FLight freezing rain. Ice fog.No wind89%30.34 "Hg3 mi
1:52 AM28 °FIce fog.3 mph89%30.36 "Hg5 mi
12:52 AM28 °FLight freezing rain. Ice fog.No wind85%30.35 "Hg4 mi
11:52 PM
Sat, Feb 28
28 °FLight freezing rain. Ice fog.No wind85%30.35 "Hg3 mi
10:52 PM28 °FLight freezing rain. Ice fog.5 mph85%30.35 "Hg3 mi
9:52 PM27 °FLight freezing rain. Ice fog.6 mph89%30.36 "Hg3 mi
8:52 PM27 °FLight freezing rain. Ice fog.5 mph85%30.36 "Hg3 mi
7:52 PM27 °FLight freezing rain. Ice fog.5 mph85%30.36 "Hg3 mi
6:52 PM27 °FLight freezing rain. Ice fog.3 mph85%30.34 "Hg3 mi
5:52 PM26 °FLight freezing rain. Ice fog.5 mph84%30.33 "Hg1 mi
4:52 PM26 °FLight freezing rain. Ice fog.5 mph84%30.34 "Hg2 mi
3:52 PM26 °FLight freezing rain. Low clouds.3 mph81%30.35 "Hg3 mi
2:59 PM27 °FLight freezing rain. Low clouds.3 mph80%30.31 "Hg3 mi
1:52 PM26 °FLight freezing rain. Mostly cloudy.No wind81%30.36 "Hg1 mi
12:52 PM25 °FLight freezing rain. Overcast.5 mph81%30.40 "Hg1 mi
12:04 PM25 °FLight freezing rain. Mostly cloudy.5 mph80%30.37 "Hg1 mi
11:52 AM24 °FLight snow. Overcast.3 mph77%30.42 "Hg1 mi
10:52 AM23 °FLight snow. More clouds than sun.5 mph78%30.44 "Hg1 mi
9:52 AM22 °FLight snow. Ice fog.7 mph78%30.44 "Hg1 mi
8:52 AM21 °FLight snow. Mostly cloudy.8 mph78%30.44 "Hg1 mi
7:52 AM20 °FLight snow. Mostly cloudy.7 mph82%30.44 "Hg1 mi
6:52 AM20 °FLight snow. Overcast.6 mph78%30.43 "Hg2 mi
5:59 AM19 °FLight snow. Ice fog.6 mph79%30.39 "Hg1 mi
Weather by CustomWeather, © 2015

See weather overviewHow to use our weather pages